This demonstration page uses our WeatherBlox Daily Observations layout. Learn more.

38.89511, -77.03637

Hourly Observations for January 9, 2015

Temp ( °F °C ) Dew Point ( °F °C ) Humidity (%) Winds ( mph kmh ) Pressure ( in mb ) Visibility ( mi km ) Precip ( " mm )
12:52 am 00:52 Cloudy 27 -3 3 -16 36 36 SSW 23 37 30.18 1022 10 16.09344 0 0
1:52 am 01:52 Cloudy 27 -3 3 -16 36 36 S 20 31 30.15 1021 10 16.09344 0 0
2:13 am 02:13 Cloudy 27 -3 3 -16 36 36 SSW 22 35 30.12 1020 10 16.09344 0 0
2:52 am 02:52 Cloudy 27 -3 3 -16 36 36 S 22 35 30.12 1020 10 16.09344 0 0
3:52 am 03:52 Cloudy 28 -2 3 -16 34 34 S 22 35 30.06 1018 10 16.09344 0 0
4:52 am 04:52 Cloudy 28 -2 5 -15 37 37 SSW 16 26 30.06 1018 10 16.09344 0 0
5:52 am 05:52 Cloudy 28 -2 7 -14 40 40 SSW 22 35 30.03 1017 10 16.09344 0 0
6:21 am 06:21 Cloudy 28 -2 7 -14 40 40 SSW 21 33 30.03 1017 10 16.09344 0 0
6:52 am 06:52 Cloudy 28 -2 7 -14 40 40 SSW 16 26 30.06 1018 10 16.09344 0 0
7:52 am 07:52 Cloudy 30 -1 7 -14 37 37 WSW 5 7 30.09 1019 10 16.09344 0 0
8:52 am 08:52 Mostly Cloudy 30 -1 7 -14 37 37 WSW 3 6 30.12 1020 10 16.09344 0 0
9:52 am 09:52 Partly Cloudy 32 0 7 -14 34 34 Calm 30.15 1021 10 16.09344 0 0
10:52 am 10:52 Mostly Sunny 34 1 7 -14 32 32 Calm 30.12 1020 10 16.09344 0 0
11:52 am 11:52 Mostly Sunny 37 3 5 -15 26 26 SW 5 7 30.09 1019 10 16.09344 0 0
12:52 pm 12:52 Mostly Sunny 39 4 9 -13 28 28 NW 8 13 30.09 1019 10 16.09344 0 0
1:52 pm 13:52 Mostly Sunny 41 5 10 -12 28 28 WNW 9 15 30.09 1019 10 16.09344 0 0
2:52 pm 14:52 Mostly Sunny 41 5 10 -12 28 28 WNW 14 22 30.09 1019 10 16.09344 0 0
3:52 pm 15:52 Mostly Sunny 39 4 9 -13 28 28 WNW 13 20 30.12 1020 10 16.09344 0 0
4:52 pm 16:52 Mostly Sunny 37 3 9 -13 30 30 NW 12 19 30.15 1021 10 16.09344 0 0
5:52 pm 17:52 Mostly Clear 36 2 7 -14 30 30 WNW 9 15 30.18 1022 10 16.09344 0 0
6:52 pm 18:52 Clear 34 1 9 -13 35 35 NNW 9 15 30.21 1023 10 16.09344 0 0
7:52 pm 19:52 Clear 32 0 10 -12 40 40 NW 14 22 30.24 1024 10 16.09344 0 0
8:52 pm 20:52 Clear 30 -1 9 -13 40 40 NW 14 22 30.27 1025 10 16.09344 0 0
9:52 pm 21:52 Clear 30 -1 9 -13 40 40 NNW 15 24 30.27 1025 10 16.09344 0 0
10:52 pm 22:52 Clear 28 -2 9 -13 43 43 NNW 12 19 30.3 1026 10 16.09344 0 0
11:52 pm 23:52 Clear 28 -2 7 -14 40 40 NW 15 24 30.33 1027 10 16.09344 0 0

Powered by AerisWeather